Weather Roundup
Issued by NWS Chicago, IL

Home | Current Version | Previous Version | Text Only | Print | Product List | Glossary On
Versions: 1 2 3 4 5 6 7 8 9 10 11 12 13 14 15 16 17 18 19 20 21 22 23 24 25 26 27 28 29 30 31 32 33 34 35 36 37 38 39 40 41 42 43 44 45 46 47 48 49 50
000
NZUS59 KLOT 031312
HRRLOT

CHICAGO AREA WEATHER ROUNDUP
NATIONAL WEATHER SERVICE CHICAGO/ROMEOVILLE IL
700 AM CST SAT DEC 03 2016

NOTE: "FAIR" INDICATES FEW OR NO CLOUDS BELOW 12,000 FEET WITH NO
SIGNIFICANT WEATHER AND/OR OBSTRUCTIONS TO VISIBILITY.

* THESE STATIONS ARE NOT UNDER NWS QUALITY CONTROL. THEY ALSO MAY NOT
  REPORT WEATHER SUCH AS PRECIPITATION OR FOG.

ILZ005-006-012>014-019>023-031400-
NORTHEAST ILLINOIS

CITY           SKY/WX    TMP DP  RH WIND       PRES   REMARKS
OHARE          CLOUDY    32  22  66 W9        30.35R WCI  24
MIDWAY         CLOUDY    33  20  58 NW10      30.35S WCI  25
AURORA         CLOUDY    33  25  72 NW13      30.36S WCI  24
LANSING*       CLOUDY    32  26  76 W6        30.36S WCI  27
JOLIET*        CLOUDY    34  26  72 NW3       30.36S
WAUKEGAN       CLOUDY    32  23  69 VRB3      30.34S
DUPAGE AIRPORT CLOUDY    32  22  66 NW9       30.35R WCI  24
WHEELING       CLOUDY    32  21  64 W8        30.36S WCI  25
KANKAKEE*      CLOUDY    33  26  73 W5        30.37R WCI  29
MORRIS*        CLOUDY    33  27  80 W7        30.35S WCI  26
LEWIS AIRPORT* CLOUDY    32  28  84 NW5       30.35S WCI  27
NORTHERLY ISL    N/A     33  22  64 W8          N/A  WCI  26
$$

WIZ051-052-058>065-066-070>072-031400-
SOUTHEAST WISCONSIN

CITY           SKY/WX    TMP DP  RH WIND       PRES   REMARKS
MILWAUKEE      CLOUDY    33  22  63 W8        30.34R WCI  26
KENOSHA*       CLOUDY    31  23  72 NW7       30.34S WCI  24
RACINE*        CLOUDY    32  22  66 W6        30.36R WCI  26
BURLINGTON     CLOUDY    31  24  76 NW5       30.34S WCI  26
WAUKESHA       CLOUDY    28  21  74 W7        30.34R WCI  21
WEST BEND      CLOUDY    30  27  86 W8        30.32R WCI  23
$$

INZ001>003-010>013-019-020-031400-
NORTHWEST INDIANA

CITY           SKY/WX    TMP DP  RH WIND       PRES   REMARKS
GARY*          CLOUDY    34  23  64 W12       30.36S WCI  25
MICHIGAN CITY* NOT AVBL
RENSSELAER*    NOT AVBL
VALPARAISO     PTCLDY    32  22  66 W9        30.34F WCI  24
$$

LMZ740>746-031400-
SOUTHERN LAKE MICHIGAN

STATION/POSITION TIME  SKY/WX   TEMP WIND        PRES    VSBY
                                AIR  DIR/SP/G
                 (UTC)          (F)  (DEG/KT/KT) (MB)    (MI)
HARRISON CRIB    1240            34  290/ 11/ 14   N/A
BURNHAM HARBOR   1300            33  250/  3/ 10   N/A
CALUMET HARBOR   1248            32  290/  3/  6 1027.2R
BURNS HARBOR     1240            35  260/ 11/ 14 1028.1S
MICHIGAN CITY    1240            35  240/ 13/ 16   N/A
$$

ABBREVIATIONS USED IN REMARKS
   TC - TEMPERATURE IN CELSIUS
  WCI - WIND CHILL INDEX
   HX - HEAT INDEX
  VSB - VISIBILITY
$$




USA.gov is the U.S. government's official web portal to all federal, state and local government web resources and services.